Hearne, TX

3:54 PM CST on December 15, 2019 (GMT -0600)
Hearne

Weather History for KLHB - November, 2019

Change the Weather History Date:

Thursday, November 14, 2019

  Actual Average (KCLL) Record (KCLL)
Temperature  
Mean Temperature 39 °F -  
Max Temperature 44 °F 68 °F 94 °F (1921)
Min Temperature 34 °F 49 °F 27 °F (1916)
Degree Days  
Heating Degree Days 26    
Moisture  
Dew Point 38 °F    
Average Humidity 89    
Maximum Humidity 98    
Minimum Humidity 62    
Precipitation  
Precipitation 0.23 in - - ()
Sea Level Pressure  
Sea Level Pressure 30.30 in    
Wind  
Wind Speed 2 mph ()    
Max Wind Speed 10 mph    
Max Gust Speed -    
Visibility 5.2 miles    
Events Fog , Rain    
Averages and records for this station are not official NWS values.
T = Trace of Precipitation, MM = Missing Value Source: Averaged Metar Reports

Daily Weather History Graph

Daily Weather History Graph

Search for Another Location

Airport or City:

Astronomy

Nov. 14, 2019 Rise Set
Actual Time 6:52 AM CST 5:29 PM CST
Civil Twilight 6:26 AM CST 5:54 PM CST
Nautical Twilight 5:57 AM CST 6:23 PM CST
Astronomical Twilight 5:28 AM CST 6:52 PM CST
Moon 7:21 PM CST (11/14) 8:44 AM CST (11/14)
Length of Visible Light 11h 28m
Length of Day
10h 37m
Waning Gibbous, 95% of the Moon is Illuminated
Nov 14
Waning Gibbous
Nov 19
Last Quarter
Nov 26
New
Dec 4
First Quarter
Dec 11
Full

Hourly Weather History & Observations

Time (CST) Temp. Windchill Dew Point Humidity Pressure Visibility Wind Dir Wind Speed Gust Speed Precip Events Conditions
12:15 AM 43.2 °F - 30.9 °F 62% 30.19 in 10.0 mi Calm Calm - N/A   Overcast
12:35 AM 43.3 °F 41.7 °F 31.1 °F 62% 30.19 in 10.0 mi SSE 3.5 mph - N/A   Overcast
12:55 AM 43.3 °F - 31.1 °F 62% 30.20 in 10.0 mi Calm Calm - N/A   Overcast
1:15 AM 43.3 °F - 31.8 °F 64% 30.20 in 10.0 mi Calm Calm - N/A   Overcast
1:35 AM 43.3 °F - 32.0 °F 64% 30.20 in 10.0 mi Calm Calm - N/A   Overcast
1:55 AM 43.7 °F - 31.5 °F 62% 30.21 in 10.0 mi Calm Calm - N/A   Overcast
2:15 AM 43.3 °F 41.7 °F 31.8 °F 64% 30.18 in 10.0 mi ESE 3.5 mph - N/A   Overcast
2:35 AM 43.5 °F - 32.0 °F 64% 30.19 in 10.0 mi Calm Calm - N/A   Overcast
2:55 AM 43.3 °F - 32.2 °F 65% 30.19 in 10.0 mi Calm Calm - N/A   Overcast
3:15 AM 43.2 °F 41.5 °F 33.3 °F 68% 30.19 in 7.0 mi ESE 3.5 mph - N/A   Drizzle
3:35 AM 41.4 °F - 36.1 °F 82% 30.20 in 5.0 mi Calm Calm - N/A   Light Drizzle
3:55 AM 41.0 °F - 37.2 °F 86% 30.20 in 10.0 mi Calm Calm - N/A   Overcast
4:15 AM 41.0 °F 39.0 °F 37.4 °F 87% 30.21 in 10.0 mi NE 3.5 mph - N/A   Overcast
4:35 AM 40.6 °F - 36.7 °F 86% 30.21 in 10.0 mi Calm Calm - N/A Rain Light Rain
4:55 AM 40.3 °F 36.3 °F 37.6 °F 90% 30.21 in 7.0 mi East 5.8 mph - 0.03 in Rain Light Rain
5:15 AM 40.1 °F 38.0 °F 37.9 °F 92% 30.22 in 10.0 mi East 3.5 mph - N/A   Light Drizzle
5:35 AM 40.1 °F 38.0 °F 38.3 °F 93% 30.22 in 4.0 mi ENE 3.5 mph - 0.01 in Rain Rain
5:55 AM 40.3 °F - 38.5 °F 93% 30.24 in 7.0 mi Calm Calm - 0.02 in   Light Drizzle
6:15 AM 40.3 °F - 38.7 °F 94% 30.25 in 4.0 mi Calm Calm - 0.01 in   Light Drizzle
6:35 AM 40.3 °F - 38.8 °F 95% 30.26 in 3.0 mi Calm Calm - 0.02 in   Light Drizzle
6:55 AM 40.3 °F - 39.0 °F 95% 30.27 in 2.5 mi Calm Calm - 0.03 in   Light Drizzle
7:35 AM 40.5 °F - 39.2 °F 95% 30.28 in 2.0 mi Calm Calm - 0.02 in   Drizzle
7:55 AM 40.8 °F - 39.4 °F 95% 30.28 in 1.8 mi Calm Calm - 0.04 in   Drizzle
8:15 AM 41.0 °F - 39.7 °F 95% 30.28 in 2.0 mi Calm Calm - 0.01 in   Drizzle
8:35 AM 41.2 °F - 40.1 °F 96% 30.29 in 3.0 mi Calm Calm - 0.01 in   Overcast
8:55 AM 41.7 °F - 40.3 °F 95% 30.29 in 5.0 mi Calm Calm - 0.01 in   Overcast
9:15 AM 42.1 °F - 40.6 °F 95% 30.30 in 4.0 mi Calm Calm - N/A   Overcast
9:35 AM 42.3 °F 40.5 °F 41.0 °F 95% 30.30 in 4.0 mi North 3.5 mph - N/A   Overcast
9:55 AM 42.6 °F 40.9 °F 41.0 °F 94% 30.31 in 5.0 mi North 3.5 mph - 0.01 in   Overcast
10:15 AM 43.0 °F 40.3 °F 41.7 °F 95% 30.31 in 3.0 mi North 4.6 mph - N/A   Overcast
10:35 AM 43.2 °F 40.5 °F 41.7 °F 95% 30.32 in 4.0 mi North 4.6 mph - N/A   Overcast
10:55 AM 43.2 °F 39.7 °F 41.5 °F 94% 30.32 in 5.0 mi North 5.8 mph - N/A   Overcast
11:15 AM 43.7 °F 39.7 °F 41.9 °F 93% 30.33 in 4.0 mi North 6.9 mph - N/A   Overcast
11:30 AM 43.7 °F 39.7 °F 41.9 °F 93% 30.33 in 4.0 mi North 6.9 mph - N/A   Overcast
11:55 AM 43.3 °F 39.2 °F 41.7 °F 94% 30.33 in 3.0 mi North 6.9 mph - N/A Rain Light Rain
12:15 PM 43.2 °F 38.4 °F 41.5 °F 94% 30.33 in 3.0 mi North 8.1 mph - N/A Rain Light Rain
12:35 PM 43.5 °F 38.9 °F 41.5 °F 93% 30.33 in 5.0 mi North 8.1 mph - 0.02 in Rain Rain
12:55 PM 43.7 °F 38.6 °F 41.7 °F 93% 30.32 in 5.0 mi North 9.2 mph - 0.04 in Rain Light Rain
1:15 PM 43.7 °F 38.6 °F 41.5 °F 92% 30.32 in 7.0 mi North 9.2 mph - 0.01 in Rain Rain
1:35 PM 43.7 °F 39.1 °F 41.2 °F 91% 30.31 in 7.0 mi North 8.1 mph - 0.02 in Rain Light Rain
1:55 PM 43.7 °F 38.6 °F 41.4 °F 91% 30.31 in 5.0 mi North 9.2 mph - 0.03 in Rain Rain
2:15 PM 44.1 °F 39.5 °F 41.9 °F 92% 30.31 in 5.0 mi North 8.1 mph - 0.01 in Rain Rain
2:35 PM 43.9 °F 38.3 °F 41.7 °F 92% 30.31 in 5.0 mi North 10.4 mph - 0.01 in Rain Light Rain
2:55 PM 43.9 °F 39.9 °F 41.7 °F 92% 30.31 in 5.0 mi North 6.9 mph - 0.01 in   Overcast
3:15 PM 43.7 °F 39.7 °F 41.7 °F 93% 30.32 in 5.0 mi North 6.9 mph - N/A   Overcast
3:35 PM 44.1 °F 40.1 °F 42.1 °F 93% 30.32 in 5.0 mi NNW 6.9 mph - N/A   Overcast
3:55 PM 43.7 °F - 41.7 °F 93% 30.32 in 7.0 mi Calm Calm - 0.01 in   Overcast
4:15 PM 44.1 °F - 41.9 °F 92% 30.32 in 10.0 mi Calm Calm - N/A   Overcast
4:35 PM 44.4 °F - 41.9 °F 91% 30.32 in 10.0 mi Calm Calm - N/A   Overcast
4:55 PM 44.1 °F - 41.7 °F 91% 30.32 in 10.0 mi Calm Calm - N/A   Overcast
5:15 PM 44.1 °F - 41.5 °F 91% 30.33 in 10.0 mi Calm Calm - N/A   Overcast
5:35 PM 44.1 °F - 41.5 °F 91% 30.33 in 10.0 mi Calm Calm - N/A   Overcast
5:55 PM 43.5 °F - 41.4 °F 92% 30.33 in 10.0 mi Calm Calm - N/A   Scattered Clouds
6:15 PM 42.8 °F - 41.0 °F 93% 30.33 in 7.0 mi Calm Calm - N/A   Clear
6:35 PM 41.2 °F - 39.7 °F 95% 30.35 in 1.2 mi Calm Calm - N/A   Mist
6:55 PM 38.7 °F - 37.6 °F 96% 30.35 in 0.8 mi Calm Calm - N/A   Mist
7:55 PM 37.0 °F - 36.5 °F 98% 30.38 in 0.5 mi Calm Calm - N/A Fog Fog
8:15 PM 36.7 °F - 36.0 °F 97% 30.38 in 0.2 mi Calm Calm - N/A Fog Fog
8:35 PM 36.0 °F - 35.4 °F 98% 30.39 in 0.2 mi Calm Calm - N/A Fog Fog
8:55 PM 35.6 °F - 34.9 °F 97% 30.40 in 0.2 mi Calm Calm - N/A Fog Fog
9:15 PM 35.6 °F - 35.1 °F 98% 30.41 in 0.2 mi Calm Calm - N/A Fog Fog
9:35 PM 35.6 °F - 34.9 °F 97% 30.41 in 0.2 mi Calm Calm - N/A Fog Fog
9:55 PM 35.6 °F - 35.1 °F 98% 30.41 in 0.2 mi Calm Calm - N/A Fog Fog
10:15 PM 35.4 °F - 34.7 °F 97% 30.41 in 0.2 mi Calm Calm - N/A Fog Fog
10:35 PM 35.2 °F - 34.7 °F 98% 30.41 in 0.2 mi Calm Calm - N/A Fog Fog
10:55 PM 34.9 °F - 34.3 °F 98% 30.41 in 0.5 mi Calm Calm - N/A Fog Fog
11:15 PM 34.7 °F - 34.0 °F 97% 30.42 in 0.2 mi Calm Calm - N/A Fog Fog
11:35 PM 34.3 °F - 33.8 °F 98% 30.41 in 0.2 mi Calm Calm - N/A Fog Fog
11:55 PM 34.3 °F - 33.8 °F 98% 30.42 in 0.2 mi Calm Calm - N/A Fog Fog